PAL214 YMML-RPLL

Flight info

Callsign PAL214
Flight time N/A
Altitude 34000
Route KEPPA3/34 KEPPA DCT NATYA DCT IDKEG DCT TUNVI DCT BOU DCT KAKTU DCT GTE DCT TOREX/N0491F360 B472 IBAGO IBAGO1A
Aircraft B77W/H-SDE1E2E3FGHIJ2J3J4J5M1RWXY/LB1D1

Departure

Time N/A
Airport Melbourne Airport (YMML)

Arrival

Time 2026-05-01 10:35
Airport Ninoy Aquino International Airport (RPLL)
Time Latitude Longitude Altitude Speed Heading
2026-05-01 07:23 -14.26441 136.58790 33953 ft 482 kts 333°
2026-05-01 07:24 -14.17255 136.54569 33952 ft 482 kts 333°
2026-05-01 07:24 -14.11136 136.51759 33950 ft 481 kts 333°
2026-05-01 07:25 -14.05022 136.48952 33946 ft 481 kts 333°
2026-05-01 07:25 -13.98910 136.46148 33948 ft 481 kts 333°
2026-05-01 07:26 -13.92790 136.43374 33944 ft 480 kts 333°
2026-05-01 07:26 -13.86658 136.40646 33942 ft 480 kts 334°
2026-05-01 07:27 -13.80532 136.37924 33944 ft 479 kts 334°
2026-05-01 07:27 -13.74462 136.35221 33941 ft 478 kts 334°
2026-05-01 07:28 -13.68356 136.32499 33938 ft 478 kts 334°
2026-05-01 07:28 -13.62255 136.29780 33939 ft 478 kts 334°
2026-05-01 07:29 -13.56158 136.27064 33938 ft 477 kts 334°
2026-05-01 07:29 -13.50065 136.24352 33937 ft 477 kts 334°
2026-05-01 07:30 -13.43973 136.21642 33935 ft 477 kts 334°
2026-05-01 07:30 -13.37881 136.18933 33933 ft 477 kts 334°
2026-05-01 07:31 -13.31789 136.16226 33935 ft 477 kts 334°
2026-05-01 07:32 -13.16546 136.09459 33928 ft 478 kts 334°
2026-05-01 07:33 -13.07397 136.05402 33927 ft 478 kts 334°
2026-05-01 07:33 -12.98282 136.01363 33926 ft 478 kts 334°
2026-05-01 07:34 -12.89121 135.97308 33923 ft 478 kts 334°
2026-05-01 07:35 -12.83012 135.94605 33918 ft 478 kts 334°
2026-05-01 07:35 -12.76900 135.91902 33920 ft 479 kts 334°
2026-05-01 07:36 -12.70783 135.89199 33920 ft 479 kts 334°
2026-05-01 07:36 -12.64664 135.86496 33930 ft 479 kts 334°
2026-05-01 07:37 -12.55477 135.82441 33930 ft 479 kts 334°
2026-05-01 07:37 -12.49353 135.79739 33919 ft 480 kts 334°
2026-05-01 07:38 -12.43222 135.77036 33908 ft 480 kts 334°
2026-05-01 07:39 -12.34018 135.72979 33912 ft 480 kts 334°
2026-05-01 07:39 -12.24803 135.68923 33911 ft 481 kts 334°
2026-05-01 07:40 -12.18659 135.66219 33908 ft 481 kts 334°
2026-05-01 07:40 -12.12551 135.63533 33908 ft 481 kts 334°
2026-05-01 07:41 -12.06399 135.60828 33909 ft 481 kts 334°
2026-05-01 07:42 -11.97164 135.56772 33906 ft 482 kts 334°
2026-05-01 07:42 -11.91004 135.54067 33906 ft 482 kts 334°
2026-05-01 07:43 -11.84844 135.51364 33904 ft 482 kts 334°
2026-05-01 07:43 -11.75596 135.47309 33905 ft 482 kts 334°
2026-05-01 07:44 -11.63253 135.41900 33903 ft 483 kts 335°
2026-05-01 07:45 -11.57075 135.39195 33906 ft 483 kts 335°
2026-05-01 07:45 -11.50898 135.36492 33898 ft 483 kts 335°
2026-05-01 07:46 -11.44718 135.33789 33899 ft 483 kts 335°
2026-05-01 07:47 -11.35449 135.29736 33900 ft 483 kts 335°
2026-05-01 07:47 -11.29315 135.27056 33901 ft 483 kts 335°
2026-05-01 07:48 -11.20052 135.23012 33901 ft 483 kts 335°
2026-05-01 07:48 -11.13882 135.20319 33900 ft 482 kts 335°
2026-05-01 07:49 -11.04634 135.16286 33900 ft 482 kts 335°
2026-05-01 07:50 -10.98478 135.13602 33901 ft 481 kts 335°
2026-05-01 07:50 -10.89246 135.09580 33889 ft 481 kts 335°
2026-05-01 07:51 -10.83094 135.06902 33895 ft 481 kts 335°
2026-05-01 07:52 -10.73862 135.02884 33892 ft 481 kts 335°
2026-05-01 07:52 -10.67704 135.00206 33892 ft 481 kts 335°
2026-05-01 07:53 -10.58463 134.96189 33887 ft 482 kts 336°
2026-05-01 07:53 -10.52294 134.93509 33889 ft 482 kts 336°
2026-05-01 07:55 -10.36898 134.86826 33887 ft 483 kts 336°
2026-05-01 07:56 -10.21449 134.80126 33885 ft 483 kts 336°
2026-05-01 07:57 -10.12182 134.76111 33884 ft 483 kts 336°
2026-05-01 07:58 -9.99835 134.70766 33883 ft 482 kts 336°
2026-05-01 07:59 -9.87495 134.65428 33879 ft 482 kts 336°
2026-05-01 08:00 -9.70049 134.57887 33879 ft 481 kts 336°
2026-05-01 08:01 -9.57732 134.52570 33875 ft 481 kts 337°
2026-05-01 08:02 -9.48491 134.48583 33880 ft 481 kts 337°
2026-05-01 08:03 -9.39251 134.44598 33878 ft 482 kts 337°
2026-05-01 08:03 -9.29996 134.40610 33871 ft 482 kts 337°
2026-05-01 08:04 -9.17660 134.35297 33877 ft 482 kts 337°
2026-05-01 08:05 -9.08447 134.31332 33871 ft 482 kts 337°
2026-05-01 08:06 -8.99190 134.27350 33871 ft 482 kts 337°
2026-05-01 08:07 -8.86840 134.22041 33872 ft 482 kts 337°
2026-05-01 08:08 -8.77573 134.18061 33871 ft 483 kts 337°
2026-05-01 08:09 -8.65211 134.12753 33869 ft 483 kts 338°
2026-05-01 08:09 -8.59025 134.10099 33868 ft 483 kts 338°
2026-05-01 08:10 -8.46651 134.04793 33870 ft 483 kts 338°
2026-05-01 08:11 -8.34271 133.99487 33866 ft 483 kts 338°
2026-05-01 08:12 -8.24982 133.95509 33865 ft 483 kts 338°
2026-05-01 08:13 -8.15691 133.91532 33865 ft 483 kts 338°
2026-05-01 08:13 -8.06400 133.87556 33864 ft 484 kts 338°
2026-05-01 08:14 -8.00206 133.84908 33866 ft 484 kts 338°
2026-05-01 08:14 -7.94006 133.82257 33866 ft 484 kts 338°
2026-05-01 08:15 -7.84743 133.78298 33867 ft 484 kts 338°
2026-05-01 08:16 -7.78536 133.75646 33865 ft 485 kts 338°
2026-05-01 08:16 -7.72328 133.72995 33862 ft 485 kts 338°
2026-05-01 08:17 -7.66113 133.70342 33860 ft 485 kts 338°
2026-05-01 08:17 -7.59896 133.67688 33861 ft 485 kts 338°
2026-05-01 08:18 -7.53676 133.65034 33862 ft 486 kts 338°
2026-05-01 08:19 -7.41234 133.59701 33860 ft 486 kts 336°
2026-05-01 08:19 -7.35357 133.56307 33864 ft 488 kts 328°
2026-05-01 08:20 -7.29675 133.52561 33861 ft 488 kts 328°
2026-05-01 08:20 -7.23984 133.48817 33857 ft 489 kts 328°
2026-05-01 08:21 -7.18275 133.45096 33855 ft 489 kts 329°
2026-05-01 08:21 -7.12556 133.41385 33854 ft 489 kts 329°
2026-05-01 08:22 -7.06830 133.37673 33856 ft 489 kts 329°
2026-05-01 08:22 -7.01108 133.33963 33857 ft 489 kts 329°
2026-05-01 08:23 -6.95382 133.30252 33850 ft 489 kts 329°
2026-05-01 08:23 -6.89655 133.26540 33853 ft 490 kts 329°
2026-05-01 08:24 -6.83926 133.22828 33852 ft 490 kts 329°
2026-05-01 08:24 -6.78195 133.19116 33851 ft 490 kts 329°
2026-05-01 08:25 -6.72496 133.15426 33854 ft 490 kts 329°
2026-05-01 08:25 -6.66757 133.11711 33849 ft 491 kts 329°
2026-05-01 08:26 -6.61013 133.07993 33849 ft 491 kts 329°
2026-05-01 08:26 -6.55266 133.04275 33848 ft 491 kts 329°
2026-05-01 08:27 -6.49521 133.00558 33848 ft 491 kts 329°
2026-05-01 08:27 -6.43767 132.96838 33847 ft 492 kts 329°
2026-05-01 08:28 -6.38014 132.93119 33852 ft 492 kts 329°
2026-05-01 08:28 -6.32252 132.89395 33848 ft 492 kts 329°
2026-05-01 08:29 -6.26490 132.85672 33849 ft 493 kts 329°
2026-05-01 08:29 -6.20719 132.81945 33848 ft 493 kts 329°
2026-05-01 08:30 -6.14941 132.78213 33848 ft 494 kts 329°
2026-05-01 08:30 -6.09160 132.74481 33848 ft 494 kts 329°
2026-05-01 08:31 -6.03374 132.70746 33850 ft 495 kts 329°
2026-05-01 08:31 -5.97577 132.67006 33848 ft 495 kts 329°
2026-05-01 08:32 -5.91818 132.63291 33848 ft 496 kts 329°
2026-05-01 08:32 -5.86013 132.59547 33850 ft 496 kts 329°
2026-05-01 08:33 -5.80204 132.55802 33847 ft 496 kts 329°
2026-05-01 08:33 -5.74394 132.52056 33845 ft 496 kts 329°
2026-05-01 08:34 -5.68583 132.48311 33846 ft 496 kts 329°
2026-05-01 08:34 -5.62771 132.44567 33845 ft 496 kts 329°
2026-05-01 08:35 -5.56960 132.40823 33845 ft 496 kts 329°
2026-05-01 08:35 -5.51149 132.37081 33848 ft 496 kts 329°
2026-05-01 08:36 -5.45340 132.33341 33848 ft 496 kts 329°
2026-05-01 08:36 -5.39529 132.29601 33846 ft 496 kts 329°
2026-05-01 08:37 -5.33720 132.25862 33847 ft 496 kts 329°
2026-05-01 08:37 -5.27906 132.22122 33846 ft 496 kts 329°
2026-05-01 08:38 -5.22093 132.18383 33847 ft 497 kts 329°
2026-05-01 08:38 -5.16274 132.14641 33847 ft 497 kts 329°
2026-05-01 08:39 -5.10492 132.10923 33848 ft 497 kts 329°
2026-05-01 08:39 -5.04666 132.07178 33849 ft 498 kts 329°
2026-05-01 08:40 -4.95919 132.01557 33845 ft 498 kts 329°
2026-05-01 08:40 -4.90086 131.97809 33845 ft 498 kts 329°
2026-05-01 08:41 -4.84254 131.94063 33844 ft 498 kts 329°
2026-05-01 08:41 -4.78429 131.90322 33842 ft 497 kts 329°
2026-05-01 08:42 -4.72609 131.86585 33844 ft 496 kts 329°
2026-05-01 08:42 -4.66799 131.82855 33844 ft 496 kts 329°
2026-05-01 08:43 -4.60993 131.79129 33845 ft 495 kts 329°
2026-05-01 08:43 -4.55196 131.75409 33843 ft 494 kts 329°
2026-05-01 08:44 -4.49407 131.71695 33844 ft 494 kts 329°
2026-05-01 08:44 -4.43660 131.68009 33843 ft 494 kts 329°
2026-05-01 08:45 -4.37877 131.64300 33844 ft 493 kts 329°
2026-05-01 08:45 -4.32095 131.60592 33844 ft 493 kts 329°
2026-05-01 08:46 -4.26314 131.56886 33843 ft 494 kts 329°
2026-05-01 08:46 -4.20526 131.53177 33847 ft 494 kts 329°
2026-05-01 08:47 -4.14736 131.49466 33847 ft 494 kts 329°
2026-05-01 08:47 -4.08937 131.45750 33844 ft 495 kts 329°
2026-05-01 08:48 -4.03132 131.42032 33847 ft 495 kts 329°
2026-05-01 08:48 -3.97321 131.38310 33847 ft 496 kts 329°
2026-05-01 08:49 -3.91507 131.34586 33845 ft 496 kts 329°
2026-05-01 08:49 -3.85690 131.30861 33848 ft 496 kts 329°
2026-05-01 08:50 -3.80857 131.27767 33847 ft 496 kts 329°
2026-05-01 08:50 -3.74062 131.23417 33849 ft 496 kts 329°
2026-05-01 08:51 -3.68296 131.19727 33843 ft 495 kts 329°
2026-05-01 08:51 -3.62500 131.16018 33850 ft 494 kts 329°
2026-05-01 08:52 -3.56715 131.12317 33847 ft 493 kts 329°
2026-05-01 08:52 -3.51912 131.09245 33846 ft 493 kts 329°
2026-05-01 08:53 -3.46140 131.05553 33846 ft 492 kts 329°
2026-05-01 08:53 -3.40370 131.01862 33844 ft 492 kts 329°
2026-05-01 08:54 -3.34594 130.98169 33845 ft 493 kts 329°
2026-05-01 08:54 -3.28808 130.94470 33845 ft 494 kts 329°
2026-05-01 08:55 -3.23006 130.90761 33843 ft 496 kts 329°
2026-05-01 08:55 -3.17186 130.87041 33843 ft 497 kts 329°
2026-05-01 08:56 -3.11352 130.83312 33847 ft 498 kts 329°
2026-05-01 08:56 -3.05503 130.79575 33848 ft 499 kts 329°
2026-05-01 08:57 -2.99646 130.75832 33846 ft 500 kts 329°
2026-05-01 08:57 -2.93795 130.72093 33846 ft 501 kts 329°
2026-05-01 08:58 -2.87921 130.68339 33844 ft 501 kts 329°
2026-05-01 08:58 -2.82045 130.64576 33844 ft 501 kts 328°
2026-05-01 08:59 -2.76187 130.60784 33843 ft 502 kts 328°
2026-05-01 08:59 -2.70333 130.56985 33844 ft 502 kts 328°
2026-05-01 09:00 -2.64515 130.53215 33846 ft 502 kts 328°
2026-05-01 09:00 -2.58658 130.49424 33842 ft 501 kts 328°
2026-05-01 09:01 -2.52805 130.45636 33844 ft 501 kts 328°
2026-05-01 09:01 -2.46956 130.41851 33846 ft 500 kts 329°
2026-05-01 09:02 -2.41113 130.38071 33846 ft 500 kts 329°
2026-05-01 09:02 -2.35276 130.34295 33844 ft 499 kts 329°
2026-05-01 09:03 -2.29446 130.30523 33847 ft 499 kts 329°
2026-05-01 09:03 -2.23622 130.26756 33843 ft 498 kts 329°
2026-05-01 09:04 -2.17806 130.22994 33848 ft 498 kts 329°
2026-05-01 09:04 -2.11990 130.19233 33853 ft 498 kts 329°
2026-05-01 09:05 -2.06170 130.15470 33853 ft 498 kts 329°
2026-05-01 09:05 -2.00351 130.11707 33853 ft 499 kts 329°
2026-05-01 09:06 -1.94522 130.07939 33850 ft 499 kts 329°
2026-05-01 09:06 -1.88692 130.04170 33851 ft 499 kts 328°
2026-05-01 09:07 -1.82854 130.00397 33850 ft 500 kts 328°
2026-05-01 09:07 -1.77013 129.96621 33853 ft 500 kts 328°
2026-05-01 09:08 -1.71168 129.92843 33852 ft 501 kts 328°
2026-05-01 09:08 -1.65316 129.89061 33850 ft 501 kts 328°
2026-05-01 09:09 -1.59460 129.85277 33848 ft 501 kts 328°
2026-05-01 09:09 -1.53598 129.81489 33847 ft 502 kts 328°
2026-05-01 09:10 -1.47734 129.77700 33848 ft 502 kts 328°
2026-05-01 09:10 -1.41864 129.73907 33848 ft 502 kts 328°
2026-05-01 09:11 -1.35991 129.70113 33846 ft 503 kts 328°
2026-05-01 09:11 -1.30119 129.66319 33846 ft 503 kts 328°
2026-05-01 09:12 -1.24245 129.62525 33849 ft 503 kts 328°
2026-05-01 09:12 -1.18374 129.58732 33848 ft 503 kts 328°
2026-05-01 09:13 -1.12540 129.54964 33852 ft 503 kts 328°
2026-05-01 09:13 -1.06668 129.51172 33852 ft 503 kts 328°
2026-05-01 09:14 -1.00796 129.47379 33853 ft 503 kts 328°
2026-05-01 09:14 -0.94923 129.43586 33851 ft 503 kts 329°
2026-05-01 09:15 -0.89048 129.39792 33853 ft 503 kts 329°
2026-05-01 09:15 -0.83171 129.35997 33852 ft 503 kts 329°
2026-05-01 09:16 -0.77293 129.32201 33853 ft 503 kts 329°
2026-05-01 09:17 -0.68474 129.26506 33853 ft 503 kts 329°
2026-05-01 09:17 -0.59652 129.20810 33861 ft 505 kts 329°
2026-05-01 09:18 -0.56693 129.18900 34022 ft 507 kts 329°
2026-05-01 09:18 -0.50780 129.15082 34705 ft 504 kts 329°
2026-05-01 09:19 -0.44960 129.11323 35418 ft 500 kts 328°
2026-05-01 09:19 -0.42039 129.09437 35712 ft 499 kts 328°
2026-05-01 09:20 -0.33250 129.03763 35844 ft 501 kts 328°
2026-05-01 09:21 -0.21595 128.96238 35852 ft 497 kts 328°
2026-05-01 09:21 -0.12890 128.90619 35853 ft 497 kts 328°
2026-05-01 09:22 -0.01272 128.83118 35853 ft 498 kts 328°
2026-05-01 09:23 0.07460 128.77481 35854 ft 499 kts 328°
2026-05-01 09:24 0.16214 128.71829 35853 ft 500 kts 328°
2026-05-01 09:25 0.27896 128.64287 35856 ft 500 kts 328°
2026-05-01 09:26 0.36652 128.58634 35851 ft 499 kts 328°
2026-05-01 09:26 0.45396 128.52989 35856 ft 498 kts 328°
2026-05-01 09:27 0.54124 128.47353 35864 ft 498 kts 328°
2026-05-01 09:28 0.59905 128.43620 35859 ft 498 kts 328°
2026-05-01 09:28 0.65724 128.39864 35865 ft 498 kts 328°
2026-05-01 09:29 0.74455 128.34225 35867 ft 498 kts 328°
2026-05-01 09:30 0.83192 128.28583 35872 ft 499 kts 328°
2026-05-01 09:30 0.91938 128.22935 35872 ft 499 kts 327°
2026-05-01 09:31 0.97776 128.19165 35868 ft 500 kts 327°
2026-05-01 09:32 1.06534 128.13508 35867 ft 500 kts 327°
2026-05-01 09:32 1.15292 128.07851 35868 ft 500 kts 327°
2026-05-01 09:33 1.21087 128.04108 35869 ft 499 kts 327°
2026-05-01 09:34 1.29833 127.98459 35863 ft 499 kts 327°
2026-05-01 09:34 1.38575 127.92811 35866 ft 499 kts 327°
2026-05-01 09:35 1.47315 127.87163 35873 ft 499 kts 328°
2026-05-01 09:36 1.53153 127.83392 35858 ft 500 kts 328°
2026-05-01 09:36 1.58992 127.79618 35861 ft 499 kts 328°
2026-05-01 09:37 1.64827 127.75848 35862 ft 499 kts 328°
2026-05-01 09:37 1.73574 127.70194 35868 ft 499 kts 328°
2026-05-01 09:38 1.82319 127.64541 35864 ft 499 kts 328°
2026-05-01 09:39 1.91069 127.58884 35859 ft 499 kts 328°
2026-05-01 09:39 1.96904 127.55110 35856 ft 500 kts 328°
2026-05-01 09:40 2.05706 127.49509 35853 ft 500 kts 329°
2026-05-01 09:41 2.08531 127.47732 35845 ft 493 kts 329°
2026-05-01 09:41 2.18201 127.41640 35880 ft 500 kts 329°
2026-05-01 09:42 2.24077 127.37927 35849 ft 503 kts 329°
2026-05-01 09:43 2.35900 127.30449 35853 ft 502 kts 329°
2026-05-01 09:43 2.40839 127.27326 35854 ft 501 kts 329°
2026-05-01 09:44 2.49664 127.21744 35855 ft 500 kts 329°
2026-05-01 09:45 2.55535 127.18031 35857 ft 499 kts 329°
2026-05-01 09:45 2.64295 127.12490 35862 ft 499 kts 329°
2026-05-01 09:46 2.70159 127.08780 35855 ft 499 kts 329°
2026-05-01 09:46 2.76025 127.05068 35859 ft 499 kts 329°
2026-05-01 09:47 2.81894 127.01355 35859 ft 499 kts 328°
2026-05-01 09:47 2.90361 126.95996 35858 ft 500 kts 328°
2026-05-01 09:48 3.13880 126.81105 35858 ft 501 kts 328°
2026-05-01 09:48 3.37439 126.66180 35864 ft 501 kts 328°
2026-05-01 09:49 3.60991 126.51251 35862 ft 501 kts 328°
2026-05-01 09:49 3.84563 126.36300 35861 ft 501 kts 328°
2026-05-01 09:50 4.08080 126.21304 35858 ft 501 kts 328°
2026-05-01 09:50 4.31490 126.06152 35862 ft 500 kts 328°
2026-05-01 09:51 4.54862 125.91032 35858 ft 500 kts 328°
2026-05-01 09:51 4.78229 125.75903 35860 ft 500 kts 328°
2026-05-01 09:52 5.01581 125.60772 35859 ft 500 kts 328°
2026-05-01 09:52 5.24966 125.45606 35852 ft 501 kts 328°
2026-05-01 09:53 5.48379 125.30407 35848 ft 502 kts 328°
2026-05-01 09:53 5.71835 125.15165 35848 ft 503 kts 328°
2026-05-01 09:54 5.95341 124.99904 35879 ft 503 kts 328°
2026-05-01 09:54 6.18904 124.84594 35852 ft 504 kts 328°
2026-05-01 09:55 6.42392 124.69344 35882 ft 502 kts 328°
2026-05-01 09:55 6.65640 124.54230 35879 ft 500 kts 328°
2026-05-01 09:56 6.88970 124.39043 35880 ft 499 kts 328°
2026-05-01 09:56 7.12301 124.23836 35872 ft 500 kts 328°
2026-05-01 09:57 7.37123 124.11481 35887 ft 498 kts 337°
2026-05-01 09:57 7.62331 123.99778 35897 ft 499 kts 336°
2026-05-01 09:58 7.87615 123.88025 35902 ft 500 kts 336°
2026-05-01 09:58 8.12907 123.76252 35894 ft 500 kts 336°
2026-05-01 09:59 8.38180 123.64472 35896 ft 500 kts 336°
2026-05-01 09:59 8.63431 123.52684 35878 ft 499 kts 335°
2026-05-01 10:00 8.88631 123.40903 35859 ft 498 kts 335°
2026-05-01 10:00 9.13787 123.29124 35833 ft 498 kts 335°
2026-05-01 10:01 9.38969 123.17335 35850 ft 499 kts 335°
2026-05-01 10:01 9.64211 123.05495 35839 ft 501 kts 335°
2026-05-01 10:02 9.89545 122.93599 35833 ft 502 kts 335°
2026-05-01 10:02 10.14701 122.81777 35843 ft 501 kts 334°
2026-05-01 10:03 10.39899 122.69794 35830 ft 499 kts 334°
2026-05-01 10:03 10.65072 122.57917 35849 ft 499 kts 334°
2026-05-01 10:04 10.90335 122.46174 35878 ft 500 kts 336°
2026-05-01 10:04 11.15978 122.35196 35898 ft 500 kts 336°
2026-05-01 10:05 11.41591 122.24116 35882 ft 500 kts 336°
2026-05-01 10:05 11.67154 122.13032 35877 ft 498 kts 336°
2026-05-01 10:06 11.92670 122.01944 35872 ft 498 kts 336°
2026-05-01 10:06 12.17927 121.90948 35877 ft 496 kts 335°
2026-05-01 10:07 12.24269 121.88182 35878 ft 496 kts 335°
2026-05-01 10:07 12.30611 121.85415 35877 ft 495 kts 335°
2026-05-01 10:08 12.40111 121.81268 35879 ft 495 kts 335°
2026-05-01 10:09 12.46433 121.78501 35888 ft 494 kts 335°
2026-05-01 10:09 12.52755 121.75732 35889 ft 494 kts 335°
2026-05-01 10:10 12.59024 121.72985 35888 ft 493 kts 335°
2026-05-01 10:10 12.68479 121.68838 35694 ft 495 kts 335°
2026-05-01 10:11 12.71693 121.67427 34817 ft 506 kts 335°
2026-05-01 10:11 12.74932 121.66004 33990 ft 508 kts 335°
2026-05-01 10:11 12.78191 121.64574 32993 ft 511 kts 335°
2026-05-01 10:11 12.81460 121.63138 32198 ft 509 kts 336°
2026-05-01 10:12 12.84697 121.61718 31585 ft 504 kts 336°
2026-05-01 10:12 12.86868 121.60764 31170 ft 501 kts 336°
2026-05-01 10:12 12.94237 121.57527 29743 ft 491 kts 336°
2026-05-01 10:13 12.97359 121.56154 29082 ft 486 kts 336°
2026-05-01 10:13 13.00455 121.54792 28461 ft 481 kts 336°
2026-05-01 10:13 13.03515 121.53445 27874 ft 476 kts 336°
2026-05-01 10:14 13.09540 121.50793 26731 ft 467 kts 336°
2026-05-01 10:14 13.12510 121.49485 26175 ft 463 kts 337°
2026-05-01 10:14 13.15455 121.48188 25611 ft 459 kts 337°
2026-05-01 10:14 13.18380 121.46899 25051 ft 456 kts 337°
2026-05-01 10:15 13.21286 121.45618 24495 ft 453 kts 337°
2026-05-01 10:15 13.24175 121.44345 23949 ft 451 kts 338°
2026-05-01 10:15 13.27048 121.43078 23381 ft 448 kts 338°
2026-05-01 10:15 13.29908 121.41817 22752 ft 446 kts 338°
2026-05-01 10:16 13.32745 121.40565 22180 ft 442 kts 338°
2026-05-01 10:16 13.35555 121.39325 21648 ft 438 kts 338°
2026-05-01 10:16 13.41101 121.36877 20733 ft 427 kts 338°
2026-05-01 10:17 13.43787 121.35690 20563 ft 415 kts 338°
2026-05-01 10:17 13.48949 121.33408 20211 ft 393 kts 338°
2026-05-01 10:17 13.51433 121.32311 20047 ft 383 kts 338°
2026-05-01 10:18 13.55815 121.29540 19510 ft 368 kts 313°
2026-05-01 10:18 13.57479 121.27559 19163 ft 365 kts 312°
2026-05-01 10:18 13.59131 121.25573 18751 ft 365 kts 312°
2026-05-01 10:19 13.60786 121.23592 18351 ft 365 kts 312°
2026-05-01 10:19 13.62447 121.21619 17902 ft 365 kts 312°
2026-05-01 10:19 13.64113 121.19652 17474 ft 364 kts 313°
2026-05-01 10:20 13.67434 121.15753 16694 ft 360 kts 313°
2026-05-01 10:20 13.69078 121.13824 16335 ft 358 kts 313°
2026-05-01 10:20 13.70716 121.11904 15985 ft 355 kts 313°
2026-05-01 10:20 13.72341 121.09998 15644 ft 353 kts 313°
2026-05-01 10:21 13.73956 121.08105 15288 ft 350 kts 313°
2026-05-01 10:21 13.77158 121.04349 14668 ft 345 kts 313°
2026-05-01 10:21 13.78702 121.02536 14435 ft 339 kts 313°
2026-05-01 10:22 13.82024 120.99010 13414 ft 339 kts 330°
2026-05-01 10:22 13.86384 120.97780 12713 ft 327 kts 356°
2026-05-01 10:23 13.88675 120.97578 12189 ft 331 kts 357°
2026-05-01 10:23 13.93156 120.97151 11845 ft 316 kts 356°
2026-05-01 10:23 13.95330 120.96925 11631 ft 311 kts 356°
2026-05-01 10:24 13.99556 120.96479 11149 ft 301 kts 356°
2026-05-01 10:24 14.03664 120.96045 10707 ft 291 kts 356°
2026-05-01 10:25 14.07659 120.95624 10165 ft 287 kts 356°
2026-05-01 10:25 14.11626 120.95205 9636 ft 285 kts 357°
2026-05-01 10:26 14.11734 120.95193 9625 ft 285 kts 357°
2026-05-01 10:26 14.13557 120.95000 9352 ft 284 kts 357°
2026-05-01 10:26 14.17429 120.94493 8870 ft 276 kts 344°
2026-05-01 10:27 14.20780 120.92567 8333 ft 273 kts 332°
2026-05-01 10:27 14.24047 120.90602 7798 ft 270 kts 333°
2026-05-01 10:28 14.25649 120.89648 7662 ft 259 kts 333°
2026-05-01 10:28 14.28645 120.87879 7080 ft 239 kts 334°
2026-05-01 10:28 14.30088 120.87046 6623 ft 236 kts 334°
2026-05-01 10:29 14.32905 120.85418 5624 ft 232 kts 333°
2026-05-01 10:29 14.34320 120.84601 5070 ft 233 kts 334°
2026-05-01 10:30 14.37121 120.82980 3949 ft 229 kts 335°
2026-05-01 10:30 14.39981 120.83100 3332 ft 210 kts 43°
2026-05-01 10:31 14.41642 120.85364 3092 ft 191 kts 59°
2026-05-01 10:31 14.43042 120.87828 2568 ft 205 kts 61°
2026-05-01 10:32 14.44472 120.90404 2044 ft 205 kts 62°
2026-05-01 10:32 14.44939 120.91259 1860 ft 200 kts 62°
2026-05-01 10:32 14.46213 120.93597 1406 ft 178 kts 63°
2026-05-01 10:33 14.47369 120.95650 990 ft 151 kts 63°
2026-05-01 10:33 14.48378 120.97477 656 ft 147 kts 63°
2026-05-01 10:34 14.48882 120.98385 451 ft 143 kts 61°
2026-05-01 10:34 14.49379 120.99264 266 ft 141 kts 64°
2026-05-01 10:34 14.49867 121.00156 104 ft 143 kts 63°
2026-05-01 10:35 14.50642 121.01547 66 ft 65 kts 61°
2026-05-01 10:35 14.50808 121.01842 64 ft 32 kts 59°
2026-05-01 10:35 14.50884 121.01980 66 ft 8 kts 61°
2026-05-01 10:35 14.50924 121.02007 64 ft 7 kts
2026-05-01 10:36 14.51001 121.01936 63 ft 9 kts 278°
2026-05-01 10:36 14.50980 121.01878 66 ft 9 kts 240°
2026-05-01 10:36 14.50946 121.01818 65 ft 10 kts 240°
2026-05-01 10:37 14.50909 121.01753 67 ft 11 kts 240°
2026-05-01 10:37 14.50831 121.01611 64 ft 12 kts 240°
2026-05-01 10:37 14.50791 121.01539 66 ft 12 kts 240°
2026-05-01 10:38 14.50751 121.01467 64 ft 12 kts 240°
2026-05-01 10:38 14.50712 121.01396 67 ft 12 kts 240°
2026-05-01 10:38 14.50672 121.01324 66 ft 12 kts 240°
2026-05-01 10:38 14.50632 121.01252 63 ft 12 kts 240°
2026-05-01 10:39 14.50592 121.01181 63 ft 12 kts 240°
2026-05-01 10:39 14.50552 121.01109 66 ft 12 kts 240°
2026-05-01 10:39 14.50512 121.01038 64 ft 12 kts 240°
2026-05-01 10:39 14.50471 121.00966 65 ft 12 kts 240°
2026-05-01 10:40 14.50434 121.00898 63 ft 10 kts 241°
2026-05-01 10:40 14.50438 121.00837 63 ft 9 kts 321°
2026-05-01 10:40 14.50503 121.00822 68 ft 10 kts 340°
2026-05-01 10:40 14.50563 121.00792 65 ft 9 kts 331°
2026-05-01 10:41 14.50592 121.00761 66 ft 6 kts 276°
2026-05-01 10:41 14.50580 121.00725 63 ft 3 kts 245°
2026-05-01 10:41 14.50571 121.00707 65 ft 0 kts 244°